QPF
0.00 0.00 0.00 0.00 0.00 0.00 0.00 0.00 0.00 0.00 0.00 0.00 0.00 0.00 0.00 0.00 0.00 0.00 0.00 0.00 0.00 0.00 0.00 0.00 0.00 0.00 0.00 0.00 0.00 0.00 0.00 0.00 0.00 0.00 0.00 0.00 0.00 0.00 0.00 0.00 0.00 0.00 0.00 0.02
0.00 0.00 0.00 0.00 0.00 0.00 0.00 0.00 0.00 0.00 0.00 0.00 0.00 0.00 0.00 0.00 0.00 0.00 0.00 0.00 0.00 0.00 0.00 0.00 0.00 0.00 0.00 0.00 0.00 0.00 0.00 0.00 0.00 0.00 0.00 0.00 0.00 0.00 0.00 0.00 0.00 0.00 0.00 0.01
0.00 0.00 0.00 0.00 0.00 0.00 0.00 0.00 0.00 0.00 0.00 0.00 0.00 0.00 0.00 0.00 0.00 0.00 0.00 0.00 0.00 0.00 0.00 0.00 0.00 0.00 0.00 0.00 0.00 0.00 0.00 0.00 0.00 0.00 0.00 0.00 0.00 0.00 0.00 0.00 0.00 0.00 0.00 0.00
0.00 0.00 0.00 0.00 0.00 0.00 0.00 0.00 0.00 0.00 0.00 0.00 0.00 0.00 0.00 0.00 0.00 0.00 0.00 0.00 0.00 0.00 0.00 0.00 0.00 0.00 0.00 0.00 0.00 0.00 0.00 0.00 0.00 0.00 0.00 0.00 0.00 0.00 0.00 0.00 0.00 0.00 0.00 0.00
0.00 0.00 0.00 0.00 0.00 0.00 0.00 0.00 0.00 0.00 0.00 0.00 0.00 0.00 0.00 0.00 0.00 0.00 0.00 0.00 0.00 0.00 0.00 0.00 0.00 0.00 0.00 0.00 0.00 0.00 0.00 0.00 0.00 0.00 0.00 0.00 0.00 0.00 0.00 0.00 0.00 0.00 0.00 0.00
0.00 0.00 0.00 0.00 0.00 0.00 0.00 0.00 0.00 0.00 0.00 0.00 0.00 0.00 0.00 0.00 0.00 0.00 0.00 0.00 0.00 0.00 0.00 0.00 0.00 0.00 0.00 0.00 0.00 0.00 0.00 0.00 0.00 0.00 0.00 0.00 0.00 0.00 0.00 0.00 0.00 0.00 0.00 0.00
0.00 0.00 0.00 0.00 0.00 0.00 0.00 0.00 0.00 0.00 0.00 0.00 0.00 0.00 0.00 0.00 0.00 0.00 0.00 0.00 0.00 0.00 0.00 0.00 0.00 0.00 0.00 0.00 0.00 0.00 0.00 0.00 0.00 0.00 0.00 0.00 0.00 0.00 0.00 0.00 0.00 0.00 0.00 0.00
0.00 0.00 0.00 0.00 0.00 0.00 0.00 0.00 0.00 0.00 0.00 0.00 0.00 0.00 0.00 0.00 0.00 0.00 0.00 0.00 0.00 0.00 0.00 0.00 0.00 0.00 0.00 0.00 0.00 0.00 0.00 0.00 0.00 0.00 0.00 0.00 0.00 0.00 0.00 0.00 0.00 0.00 0.00 0.00
0.00 0.00 0.00 0.00 0.00 0.00 0.00 0.00 0.00 0.00 0.00 0.00 0.00 0.00 0.00 0.00 0.00 0.00 0.00 0.00 0.00 0.00 0.00 0.00 0.00 0.00 0.00 0.00 0.00 0.00 0.00 0.00 0.00 0.00 0.00 0.00 0.00 0.00 0.00 0.00 0.00 0.01 0.00 0.00
0.00 0.00 0.00 0.00 0.00 0.00 0.00 0.00 0.00 0.00 0.00 0.00 0.00 0.00 0.00 0.00 0.00 0.00 0.00 0.00 0.00 0.00 0.00 0.00 0.00 0.00 0.00 0.00 0.00 0.00 0.00 0.00 0.00 0.00 0.00 0.00 0.00 0.00 0.00 0.00 0.02 0.02 0.01 0.01
0.00 0.00 0.00 0.00 0.00 0.00 0.00 0.00 0.00 0.00 0.00 0.00 0.00 0.00 0.00 0.00 0.00 0.00 0.00 0.00 0.00 0.00 0.00 0.00 0.00 0.00 0.00 0.00 0.00 0.00 0.00 0.00 0.00 0.00 0.00 0.00 0.00 0.00 0.00 0.00 0.02 0.04 0.02 0.03
0.00 0.00 0.00 0.00 0.00 0.00 0.00 0.00 0.00 0.00 0.00 0.00 0.00 0.00 0.00 0.00 0.00 0.00 0.00 0.00 0.00 0.00 0.00 0.00 0.00 0.00 0.00 0.00 0.00 0.00 0.00 0.00 0.00 0.00 0.00 0.00 0.00 0.00 0.00 0.00 0.00 0.01 0.01 0.02
0.00 0.00 0.00 0.00 0.00 0.00 0.00 0.00 0.00 0.00 0.00 0.00 0.00 0.00 0.00 0.00 0.00 0.00 0.00 0.00 0.00 0.00 0.00 0.00 0.00 0.00 0.00 0.00 0.00 0.00 0.00 0.00 0.00 0.00 0.00 0.00 0.00 0.00 0.00 0.00 0.00 0.00 0.00 0.01
0.00 0.00 0.00 0.00 0.00 0.00 0.00 0.00 0.00 0.00 0.00 0.00 0.00 0.00 0.00 0.00 0.00 0.00 0.00 0.00 0.00 0.00 0.00 0.00 0.00 0.00 0.00 0.00 0.00 0.00 0.00 0.00 0.00 0.00 0.00 0.00 0.00 0.00 0.00 0.01 0.00 0.00 0.00 0.00
0.00 0.00 0.00 0.00 0.00 0.00 0.00 0.00 0.00 0.00 0.00 0.00 0.00 0.00 0.00 0.00 0.00 0.00 0.00 0.00 0.00 0.00 0.00 0.00 0.00 0.00 0.00 0.00 0.00 0.00 0.00 0.00 0.00 0.00 0.00 0.00 0.00 0.00 0.00 0.00 0.00 0.00 0.00 0.00
0.00 0.00 0.00 0.00 0.00 0.00 0.00 0.00 0.00 0.00 0.00 0.00 0.00 0.00 0.00 0.00 0.00 0.00 0.00 0.00 0.00 0.00 0.00 0.00 0.00 0.00 0.00 0.00 0.00 0.00 0.00 0.00 0.00 0.00 0.00 0.00 0.00 0.00 0.00 0.00 0.00 0.00 0.01 0.01
0.00 0.00 0.00 0.00 0.00 0.00 0.00 0.00 0.00 0.00 0.00 0.00 0.00 0.00 0.00 0.00 0.00 0.00 0.00 0.00 0.00 0.00 0.00 0.00 0.00 0.00 0.00 0.00 0.00 0.00 0.00 0.00 0.00 0.00 0.00 0.00 0.00 0.00 0.00 0.00 0.00 0.00 0.00 0.01
0.00 0.00 0.00 0.00 0.00 0.00 0.00 0.00 0.00 0.00 0.00 0.00 0.00 0.00 0.00 0.00 0.00 0.00 0.00 0.00 0.00 0.00 0.00 0.00 0.00 0.00 0.00 0.00 0.00 0.00 0.00 0.00 0.00 0.00 0.00 0.00 0.00 0.00 0.00 0.00 0.00 0.00 0.00 0.00
0.00 0.00 0.00 0.00 0.00 0.00 0.00 0.00 0.00 0.00 0.00 0.00 0.00 0.00 0.00 0.00 0.00 0.00 0.00 0.00 0.00 0.00 0.00 0.00 0.00 0.00 0.00 0.00 0.00 0.00 0.00 0.00 0.00 0.00 0.00 0.00 0.00 0.00 0.00 0.00 0.00 0.00 0.00 0.00
0.00 0.00 0.00 0.00 0.00 0.00 0.00 0.00 0.00 0.00 0.00 0.00 0.00 0.00 0.00 0.00 0.00 0.00 0.00 0.00 0.00 0.00 0.00 0.00 0.00 0.00 0.00 0.00 0.00 0.00 0.00 0.00 0.00 0.00 0.00 0.00 0.00 0.00 0.00 0.00 0.00 0.00 0.00 0.00
0.00 0.00 0.00 0.00 0.00 0.00 0.00 0.00 0.00 0.00 0.00 0.00 0.00 0.00 0.00 0.00 0.00 0.00 0.00 0.00 0.00 0.00 0.00 0.00 0.00 0.00 0.00 0.00 0.00 0.00 0.00 0.00 0.00 0.00 0.00 0.00 0.00 0.00 0.00 0.00 0.00 0.00 0.00 0.00
0.00 0.00 0.00 0.00 0.00 0.00 0.00 0.00 0.00 0.00 0.00 0.00 0.00 0.00 0.00 0.00 0.00 0.00 0.00 0.00 0.00 0.00 0.00 0.00 0.00 0.00 0.00 0.00 0.00 0.00 0.00 0.00 0.00 0.00 0.00 0.00 0.00 0.00 0.00 0.00 0.00 0.00 0.00 0.00
0.00 0.00 0.00 0.00 0.00 0.00 0.00 0.00 0.00 0.00 0.00 0.00 0.00 0.00 0.00 0.00 0.00 0.00 0.00 0.00 0.00 0.00 0.00 0.00 0.00 0.00 0.00 0.00 0.00 0.00 0.00 0.00 0.00 0.00 0.00 0.00 0.00 0.00 0.00 0.00 0.00 0.00 0.00 0.00
0.00 0.00 0.00 0.00 0.00 0.00 0.00 0.00 0.00 0.00 0.00 0.00 0.00 0.00 0.00 0.00 0.00 0.00 0.00 0.00 0.00 0.00 0.00 0.00 0.00 0.00 0.00 0.00 0.00 0.00 0.00 0.00 0.00 0.00 0.00 0.00 0.00 0.00 0.00 0.00 0.00 0.00 0.00 0.00
0.00 0.00 0.00 0.00 0.00 0.00 0.00 0.00 0.00 0.00 0.00 0.00 0.00 0.00 0.00 0.00 0.00 0.00 0.00 0.00 0.00 0.00 0.00 0.00 0.00 0.00 0.00 0.00 0.00 0.00 0.00 0.00 0.00 0.00 0.00 0.00 0.00 0.00 0.00 0.00 0.00 0.00 0.00 0.00
0.00 0.00 0.00 0.00 0.00 0.00 0.00 0.00 0.00 0.00 0.00 0.00 0.00 0.00 0.00 0.00 0.00 0.00 0.00 0.00 0.00 0.00 0.00 0.00 0.00 0.00 0.00 0.00 0.00 0.00 0.00 0.00 0.00 0.00 0.00 0.00 0.00 0.00 0.00 0.00 0.00 0.00 0.00 0.00
0.00 0.00 0.00 0.00 0.00 0.00 0.00 0.00 0.00 0.00 0.00 0.00 0.00 0.00 0.00 0.00 0.00 0.00 0.00 0.00 0.00 0.00 0.00 0.00 0.00 0.00 0.00 0.00 0.00 0.00 0.00 0.00 0.00 0.00 0.00 0.00 0.00 0.00 0.00 0.00 0.00 0.00 0.00 0.00
MSLP
1028.39 1028.25 1028.10 1027.97 1027.82 1027.67 1027.49 1027.31 1027.14 1027.03 1027.02 1027.16 1027.51 1028.09 1028.90 1029.90 1031.04 1032.25 1033.45 1034.54 1035.46 1036.17 1036.64 1036.88 1036.91 1036.78 1036.53 1036.19 1035.80 1035.39 1034.95 1034.50 1034.03 1033.53 1032.98 1032.39 1031.73 1031.01 1030.23 1029.39 1028.48 1027.52 1026.53 1025.51
1028.71 1028.39 1028.02 1027.63 1027.25 1026.89 1026.57 1026.31 1026.14 1026.10 1026.21 1026.50 1027.00 1027.70 1028.59 1029.63 1030.76 1031.92 1033.04 1034.06 1034.93 1035.61 1036.10 1036.39 1036.50 1036.46 1036.30 1036.04 1035.71 1035.33 1034.92 1034.46 1033.97 1033.46 1032.90 1032.32 1031.69 1031.02 1030.30 1029.53 1028.71 1027.84 1026.93 1026.00
1029.01 1028.50 1027.91 1027.27 1026.65 1026.09 1025.63 1025.31 1025.15 1025.19 1025.43 1025.88 1026.53 1027.37 1028.34 1029.41 1030.53 1031.63 1032.68 1033.62 1034.43 1035.07 1035.56 1035.88 1036.06 1036.10 1036.03 1035.85 1035.59 1035.26 1034.86 1034.41 1033.92 1033.39 1032.84 1032.26 1031.66 1031.04 1030.38 1029.68 1028.93 1028.13 1027.30 1026.44
1029.18 1028.50 1027.69 1026.83 1026.01 1025.28 1024.70 1024.34 1024.22 1024.34 1024.72 1025.33 1026.14 1027.10 1028.16 1029.27 1030.37 1031.43 1032.40 1033.26 1033.99 1034.59 1035.06 1035.41 1035.63 1035.74 1035.74 1035.64 1035.44 1035.14 1034.77 1034.34 1033.85 1033.32 1032.77 1032.20 1031.63 1031.03 1030.42 1029.77 1029.08 1028.34 1027.56 1026.74
1029.07 1028.24 1027.27 1026.24 1025.27 1024.42 1023.79 1023.42 1023.35 1023.58 1024.09 1024.85 1025.80 1026.89 1028.03 1029.17 1030.27 1031.28 1032.18 1032.97 1033.63 1034.18 1034.63 1034.98 1035.23 1035.38 1035.44 1035.39 1035.24 1034.98 1034.64 1034.21 1033.73 1033.21 1032.66 1032.11 1031.55 1030.98 1030.39 1029.78 1029.12 1028.41 1027.65 1026.86
1028.57 1027.63 1026.56 1025.44 1024.38 1023.50 1022.86 1022.53 1022.54 1022.88 1023.52 1024.42 1025.50 1026.68 1027.89 1029.06 1030.16 1031.14 1031.99 1032.72 1033.33 1033.83 1034.25 1034.59 1034.86 1035.04 1035.13 1035.11 1034.99 1034.76 1034.44 1034.02 1033.55 1033.04 1032.50 1031.95 1031.41 1030.85 1030.28 1029.68 1029.03 1028.33 1027.57 1026.78
1027.62 1026.63 1025.52 1024.39 1023.34 1022.49 1021.91 1021.66 1021.77 1022.23 1022.99 1024.00 1025.18 1026.43 1027.69 1028.89 1029.98 1030.94 1031.76 1032.45 1033.02 1033.50 1033.90 1034.23 1034.50 1034.69 1034.80 1034.80 1034.69 1034.48 1034.16 1033.76 1033.30 1032.79 1032.26 1031.73 1031.19 1030.64 1030.07 1029.47 1028.81 1028.10 1027.33 1026.52
1026.23 1025.25 1024.18 1023.12 1022.16 1021.42 1020.96 1020.83 1021.06 1021.62 1022.48 1023.57 1024.81 1026.11 1027.39 1028.60 1029.68 1030.63 1031.43 1032.10 1032.65 1033.13 1033.52 1033.86 1034.13 1034.32 1034.43 1034.44 1034.34 1034.13 1033.82 1033.43 1032.97 1032.48 1031.96 1031.44 1030.90 1030.36 1029.79 1029.17 1028.50 1027.77 1026.97 1026.14
1024.49 1023.57 1022.61 1021.69 1020.90 1020.33 1020.04 1020.06 1020.41 1021.07 1022.00 1023.14 1024.39 1025.70 1026.97 1028.16 1029.23 1030.16 1030.96 1031.63 1032.19 1032.67 1033.08 1033.43 1033.71 1033.91 1034.02 1034.03 1033.93 1033.73 1033.42 1033.04 1032.59 1032.12 1031.61 1031.10 1030.58 1030.04 1029.46 1028.84 1028.14 1027.39 1026.57 1025.71
1022.53 1021.73 1020.94 1020.23 1019.66 1019.30 1019.20 1019.39 1019.87 1020.61 1021.58 1022.71 1023.95 1025.21 1026.44 1027.59 1028.63 1029.55 1030.34 1031.02 1031.61 1032.12 1032.55 1032.92 1033.22 1033.43 1033.55 1033.57 1033.47 1033.27 1032.98 1032.61 1032.19 1031.74 1031.26 1030.77 1030.26 1029.73 1029.15 1028.52 1027.81 1027.04 1026.20 1025.33
1020.50 1019.86 1019.29 1018.82 1018.51 1018.40 1018.51 1018.86 1019.45 1020.25 1021.23 1022.33 1023.50 1024.69 1025.84 1026.93 1027.92 1028.81 1029.61 1030.30 1030.92 1031.46 1031.93 1032.33 1032.65 1032.89 1033.03 1033.06 1032.98 1032.80 1032.53 1032.19 1031.80 1031.38 1030.94 1030.48 1029.99 1029.47 1028.90 1028.27 1027.56 1026.78 1025.94 1025.06
1018.52 1018.07 1017.73 1017.53 1017.50 1017.64 1017.97 1018.48 1019.17 1020.01 1020.96 1022.00 1023.09 1024.17 1025.23 1026.23 1027.16 1028.02 1028.80 1029.51 1030.15 1030.73 1031.24 1031.67 1032.03 1032.29 1032.46 1032.51 1032.46 1032.32 1032.09 1031.80 1031.45 1031.08 1030.68 1030.26 1029.81 1029.31 1028.76 1028.14 1027.44 1026.66 1025.83 1024.96
1016.65 1016.41 1016.32 1016.39 1016.62 1017.01 1017.54 1018.20 1018.97 1019.83 1020.76 1021.73 1022.71 1023.69 1024.64 1025.55 1026.41 1027.23 1027.99 1028.70 1029.36 1029.96 1030.50 1030.97 1031.37 1031.66 1031.86 1031.95 1031.95 1031.85 1031.67 1031.44 1031.16 1030.84 1030.50 1030.13 1029.72 1029.26 1028.74 1028.14 1027.46 1026.70 1025.89 1025.04
1014.91 1014.86 1015.01 1015.33 1015.81 1016.42 1017.13 1017.92 1018.76 1019.64 1020.54 1021.44 1022.34 1023.22 1024.07 1024.90 1025.70 1026.47 1027.21 1027.91 1028.58 1029.20 1029.76 1030.26 1030.68 1031.01 1031.25 1031.39 1031.43 1031.39 1031.29 1031.12 1030.91 1030.66 1030.38 1030.06 1029.71 1029.29 1028.81 1028.25 1027.60 1026.88 1026.10 1025.28
1013.25 1013.39 1013.75 1014.29 1014.98 1015.77 1016.63 1017.53 1018.44 1019.34 1020.22 1021.08 1021.91 1022.72 1023.50 1024.27 1025.02 1025.75 1026.46 1027.16 1027.82 1028.45 1029.02 1029.54 1029.98 1030.34 1030.62 1030.81 1030.92 1030.94 1030.91 1030.82 1030.69 1030.51 1030.30 1030.04 1029.74 1029.37 1028.94 1028.42 1027.82 1027.15 1026.41 1025.63
1011.64 1011.93 1012.46 1013.18 1014.03 1014.97 1015.94 1016.93 1017.89 1018.82 1019.70 1020.55 1021.35 1022.12 1022.87 1023.61 1024.33 1025.04 1025.74 1026.42 1027.08 1027.70 1028.28 1028.81 1029.27 1029.66 1029.97 1030.21 1030.38 1030.48 1030.53 1030.52 1030.46 1030.36 1030.21 1030.01 1029.76 1029.45 1029.06 1028.60 1028.06 1027.45 1026.77 1026.04
1010.05 1010.46 1011.12 1011.95 1012.91 1013.94 1015.00 1016.04 1017.05 1018.01 1018.91 1019.77 1020.58 1021.36 1022.12 1022.85 1023.57 1024.29 1024.98 1025.66 1026.31 1026.93 1027.51 1028.04 1028.51 1028.93 1029.29 1029.58 1029.81 1029.99 1030.11 1030.17 1030.19 1030.16 1030.07 1029.93 1029.73 1029.47 1029.14 1028.73 1028.26 1027.71 1027.10 1026.44
1008.51 1009.01 1009.73 1010.63 1011.64 1012.71 1013.79 1014.87 1015.90 1016.89 1017.83 1018.72 1019.57 1020.39 1021.18 1021.95 1022.70 1023.43 1024.14 1024.82 1025.48 1026.09 1026.67 1027.21 1027.70 1028.15 1028.55 1028.89 1029.19 1029.44 1029.63 1029.77 1029.86 1029.89 1029.86 1029.77 1029.61 1029.40 1029.12 1028.77 1028.36 1027.89 1027.36 1026.78
1007.09 1007.63 1008.38 1009.28 1010.28 1011.34 1012.42 1013.49 1014.53 1015.53 1016.51 1017.44 1018.35 1019.22 1020.07 1020.89 1021.69 1022.45 1023.18 1023.88 1024.54 1025.16 1025.75 1026.29 1026.81 1027.29 1027.73 1028.13 1028.50 1028.82 1029.09 1029.30 1029.45 1029.53 1029.55 1029.50 1029.39 1029.21 1028.98 1028.69 1028.34 1027.95 1027.49 1026.99
1005.91 1006.46 1007.18 1008.04 1008.99 1009.98 1011.01 1012.03 1013.05 1014.06 1015.05 1016.02 1016.97 1017.90 1018.81 1019.69 1020.53 1021.34 1022.10 1022.82 1023.49 1024.12 1024.72 1025.29 1025.83 1026.35 1026.84 1027.31 1027.75 1028.14 1028.48 1028.76 1028.97 1029.10 1029.16 1029.15 1029.07 1028.93 1028.74 1028.50 1028.21 1027.89 1027.51 1027.09
1005.04 1005.57 1006.25 1007.03 1007.88 1008.78 1009.72 1010.67 1011.63 1012.61 1013.59 1014.58 1015.56 1016.54 1017.49 1018.41 1019.30 1020.14 1020.92 1021.66 1022.34 1022.99 1023.61 1024.20 1024.78 1025.35 1025.90 1026.44 1026.94 1027.41 1027.82 1028.17 1028.44 1028.62 1028.73 1028.75 1028.70 1028.59 1028.43 1028.23 1027.99 1027.73 1027.42 1027.06
1004.54 1005.05 1005.65 1006.33 1007.07 1007.85 1008.67 1009.52 1010.41 1011.33 1012.28 1013.25 1014.24 1015.22 1016.20 1017.14 1018.05 1018.90 1019.70 1020.45 1021.14 1021.81 1022.45 1023.07 1023.69 1024.31 1024.93 1025.53 1026.11 1026.65 1027.14 1027.55 1027.88 1028.12 1028.26 1028.32 1028.30 1028.21 1028.09 1027.92 1027.72 1027.50 1027.24 1026.94
1004.40 1004.86 1005.39 1005.96 1006.58 1007.23 1007.93 1008.66 1009.45 1010.29 1011.18 1012.12 1013.08 1014.05 1015.01 1015.95 1016.85 1017.70 1018.50 1019.24 1019.95 1020.62 1021.28 1021.94 1022.60 1023.27 1023.95 1024.62 1025.28 1025.89 1026.45 1026.92 1027.31 1027.60 1027.79 1027.88 1027.89 1027.84 1027.74 1027.60 1027.43 1027.24 1027.02 1026.75
1004.51 1004.93 1005.39 1005.86 1006.36 1006.89 1007.47 1008.09 1008.78 1009.53 1010.35 1011.21 1012.12 1013.05 1013.97 1014.88 1015.75 1016.58 1017.36 1018.09 1018.79 1019.48 1020.15 1020.84 1021.54 1022.25 1022.99 1023.72 1024.44 1025.13 1025.74 1026.29 1026.73 1027.07 1027.30 1027.44 1027.49 1027.46 1027.39 1027.28 1027.13 1026.97 1026.76 1026.51
1004.72 1005.12 1005.51 1005.90 1006.31 1006.73 1007.20 1007.73 1008.32 1008.98 1009.71 1010.51 1011.35 1012.21 1013.08 1013.94 1014.77 1015.56 1016.31 1017.03 1017.72 1018.40 1019.09 1019.79 1020.52 1021.28 1022.06 1022.84 1023.62 1024.35 1025.03 1025.62 1026.12 1026.52 1026.80 1026.97 1027.06 1027.08 1027.03 1026.94 1026.82 1026.67 1026.48 1026.24
1004.86 1005.23 1005.58 1005.91 1006.25 1006.60 1006.99 1007.44 1007.95 1008.54 1009.20 1009.92 1010.69 1011.49 1012.30 1013.10 1013.88 1014.63 1015.35 1016.04 1016.72 1017.40 1018.10 1018.82 1019.57 1020.35 1021.16 1021.98 1022.79 1023.56 1024.28 1024.92 1025.46 1025.90 1026.23 1026.45 1026.58 1026.64 1026.63 1026.57 1026.48 1026.34 1026.17 1025.94
1004.76 1005.11 1005.44 1005.74 1006.03 1006.34 1006.68 1007.08 1007.54 1008.07 1008.67 1009.33 1010.04 1010.78 1011.53 1012.29 1013.02 1013.74 1014.44 1015.11 1015.79 1016.47 1017.17 1017.90 1018.66 1019.46 1020.28 1021.12 1021.94 1022.74 1023.48 1024.15 1024.72 1025.20 1025.57 1025.83 1026.01 1026.11 1026.14 1026.12 1026.06 1025.95 1025.79 1025.58
Thickness
5624 5624 5619 5617 5614 5601 5590 5588 5583 5590 5585 5599 5575 5547 5526 5502 5480 5462 5446 5431 5416 5398 5379 5362 5346 5332 5317 5303 5290 5278 5265 5253 5241 5230 5219 5207 5195 5184 5172 5159 5147 5136 5127 5123
5625 5627 5618 5613 5614 5604 5595 5590 5583 5583 5593 5595 5563 5542 5518 5497 5482 5465 5448 5433 5415 5398 5379 5361 5345 5330 5316 5302 5290 5277 5265 5252 5241 5231 5220 5209 5198 5187 5175 5163 5151 5140 5131 5124
5622 5620 5625 5632 5638 5613 5607 5597 5595 5595 5605 5579 5555 5537 5522 5503 5486 5470 5451 5433 5415 5396 5378 5361 5345 5330 5315 5303 5290 5277 5265 5253 5242 5232 5221 5211 5201 5190 5179 5168 5156 5145 5136 5128
5608 5620 5635 5654 5642 5630 5623 5618 5600 5599 5599 5572 5561 5540 5522 5504 5487 5468 5452 5434 5415 5395 5377 5361 5345 5330 5317 5303 5290 5277 5265 5254 5244 5234 5223 5213 5203 5193 5183 5172 5162 5151 5142 5133
5600 5610 5622 5644 5639 5625 5621 5624 5620 5605 5600 5565 5538 5529 5515 5501 5486 5470 5451 5432 5413 5394 5377 5361 5345 5331 5317 5304 5291 5279 5267 5257 5247 5237 5226 5216 5206 5196 5187 5177 5168 5159 5150 5140
5588 5612 5619 5650 5636 5623 5620 5618 5626 5607 5590 5550 5539 5536 5537 5511 5487 5466 5447 5430 5412 5393 5376 5361 5346 5331 5318 5305 5292 5281 5270 5260 5251 5240 5230 5220 5210 5200 5191 5182 5175 5166 5157 5148
5583 5595 5621 5642 5624 5619 5618 5631 5635 5608 5585 5556 5551 5554 5535 5511 5487 5466 5447 5429 5411 5394 5377 5363 5347 5333 5320 5307 5295 5284 5274 5264 5255 5245 5233 5225 5215 5205 5196 5188 5179 5171 5163 5156
5580 5585 5621 5638 5616 5623 5640 5640 5625 5605 5586 5568 5557 5536 5520 5505 5486 5466 5447 5428 5411 5395 5379 5364 5349 5334 5321 5309 5298 5287 5276 5267 5258 5249 5239 5231 5220 5212 5204 5195 5188 5181 5174 5167
5621 5645 5657 5640 5644 5646 5640 5630 5618 5604 5588 5571 5551 5534 5519 5501 5483 5465 5447 5429 5412 5396 5381 5366 5351 5336 5323 5312 5300 5288 5278 5269 5260 5252 5244 5235 5226 5219 5211 5204 5197 5193 5185 5178
5615 5647 5653 5642 5640 5639 5631 5627 5619 5604 5588 5571 5554 5537 5519 5502 5482 5464 5447 5430 5413 5397 5382 5368 5354 5340 5326 5314 5302 5290 5280 5271 5263 5255 5248 5240 5233 5226 5218 5213 5207 5203 5194 5187
5624 5646 5645 5654 5650 5650 5638 5624 5613 5599 5586 5574 5558 5538 5521 5504 5486 5468 5451 5433 5416 5400 5387 5373 5357 5343 5330 5317 5304 5293 5283 5274 5266 5258 5249 5242 5237 5230 5225 5219 5213 5208 5201 5195
5656 5664 5653 5666 5667 5651 5636 5624 5613 5597 5581 5569 5559 5543 5524 5507 5490 5471 5454 5436 5419 5404 5391 5376 5360 5346 5333 5319 5307 5295 5286 5278 5269 5262 5254 5246 5238 5233 5228 5223 5218 5212 5206 5201
5674 5672 5662 5664 5658 5644 5635 5626 5612 5600 5587 5571 5556 5543 5526 5509 5491 5473 5456 5438 5424 5409 5394 5379 5363 5350 5336 5323 5310 5299 5289 5281 5273 5266 5258 5250 5244 5237 5232 5227 5221 5216 5211 5207
5666 5657 5652 5655 5648 5638 5628 5620 5606 5595 5583 5571 5557 5541 5526 5508 5492 5474 5459 5443 5427 5410 5395 5380 5366 5353 5340 5327 5314 5303 5293 5285 5277 5268 5259 5251 5244 5238 5233 5228 5224 5219 5214 5210
5660 5651 5653 5653 5641 5628 5616 5604 5594 5586 5574 5563 5551 5539 5524 5509 5494 5479 5462 5444 5427 5411 5396 5382 5369 5357 5344 5330 5318 5307 5296 5287 5279 5271 5262 5254 5246 5240 5234 5228 5224 5220 5217 5213
5658 5648 5642 5636 5632 5618 5604 5598 5594 5588 5576 5563 5548 5538 5526 5513 5497 5480 5462 5445 5429 5414 5400 5386 5374 5362 5348 5334 5322 5310 5299 5291 5283 5274 5264 5256 5248 5241 5235 5229 5225 5220 5217 5214
5647 5646 5636 5630 5632 5620 5612 5607 5603 5595 5579 5565 5553 5539 5522 5507 5492 5477 5463 5448 5434 5419 5404 5390 5378 5365 5351 5338 5325 5313 5302 5292 5285 5275 5265 5257 5250 5243 5236 5230 5225 5220 5216 5214
5659 5663 5658 5648 5642 5629 5617 5607 5600 5591 5581 5569 5551 5535 5521 5510 5499 5484 5466 5448 5431 5416 5404 5393 5380 5367 5354 5341 5328 5316 5305 5294 5284 5275 5267 5260 5253 5245 5238 5232 5226 5221 5217 5215
5653 5654 5653 5646 5641 5631 5621 5610 5601 5591 5578 5564 5549 5537 5528 5517 5503 5486 5467 5448 5434 5421 5410 5395 5383 5369 5356 5344 5332 5319 5307 5297 5287 5278 5270 5263 5254 5247 5240 5233 5228 5223 5219 5216
5644 5644 5642 5639 5632 5625 5620 5610 5597 5587 5575 5562 5548 5536 5524 5514 5500 5484 5468 5454 5446 5434 5417 5400 5386 5373 5359 5347 5336 5322 5310 5299 5289 5280 5272 5264 5256 5248 5241 5235 5230 5225 5221 5217
5630 5631 5629 5629 5627 5622 5616 5605 5594 5584 5572 5559 5549 5540 5528 5513 5499 5485 5469 5458 5447 5431 5416 5403 5389 5376 5363 5350 5339 5325 5313 5302 5292 5282 5273 5265 5257 5250 5243 5237 5231 5227 5222 5217
5622 5625 5626 5626 5622 5616 5608 5598 5589 5579 5567 5555 5546 5536 5523 5509 5497 5485 5475 5468 5453 5434 5418 5405 5392 5379 5366 5354 5341 5328 5316 5305 5294 5284 5275 5267 5259 5251 5245 5238 5232 5227 5222 5217
5612 5615 5616 5616 5613 5606 5593 5586 5580 5573 5563 5554 5546 5537 5527 5516 5502 5489 5477 5465 5451 5437 5421 5407 5395 5383 5370 5357 5343 5331 5319 5308 5297 5287 5278 5269 5261 5253 5246 5239 5233 5228 5222 5218
5593 5594 5593 5590 5586 5583 5581 5578 5571 5564 5556 5548 5542 5534 5525 5513 5501 5493 5484 5470 5453 5439 5424 5410 5398 5386 5373 5359 5346 5333 5322 5311 5300 5290 5280 5271 5263 5255 5247 5241 5235 5229 5224 5220
5569 5570 5569 5569 5570 5575 5572 5563 5555 5548 5542 5537 5531 5525 5520 5515 5506 5494 5480 5469 5455 5440 5425 5412 5401 5389 5376 5361 5349 5337 5326 5315 5304 5293 5283 5274 5265 5257 5250 5243 5237 5231 5226 5221
5546 5549 5552 5556 5559 5559 5555 5549 5546 5543 5537 5531 5525 5519 5512 5506 5498 5488 5476 5465 5453 5441 5426 5413 5402 5391 5377 5364 5352 5340 5329 5318 5308 5298 5287 5278 5268 5260 5252 5245 5239 5233 5228 5223
5526 5531 5534 5538 5541 5543 5542 5540 5540 5538 5536 5533 5525 5517 5509 5501 5493 5483 5472 5461 5449 5438 5425 5412 5401 5391 5379 5366 5354 5342 5332 5321 5310 5301 5291 5281 5272 5263 5255 5248 5241 5235 5230 5225